Retour au catalogue

PROBA-3 CSC

ActifScienceHEO
NORAD 62256·PAYLOAD·🇪🇺 EU

Lancé Dec 5, 2024 depuis Satish Dhawan Space Centre

Loading…

Prochains Passages (prochaines 24 heures)

TLE

FraisSource: Space-Track

Époque: Sep 12, 2026, 22:42 UTC

1 62256U 24233A   26255.94642930 -.00000121  00000-0  00000-0 0  9997
2 62256  59.7932  90.1694 7995479 207.9743  62.8726  1.22078259  7890

Suivez PROBA-3 CSC en temps réel avec AllMySat

Download on the App Store